Time,TemperatureF,DewpointF,PressureIn,WindDirection,WindDirectionDegrees,WindSpeedMPH,WindSpeedGustMPH,Humidity,HourlyPrecipIn,Conditions,Clouds,dailyrainin,SoftwareType,DateUTC
2015-05-30 00:00:00,77.1,68.9,30.07,East,92,0.0,0.0,76,0.00,BKN,,0.00,WeatherDisplay:10.37,2015-05-30 04:00:00,
2015-05-30 00:05:00,77.1,68.9,30.07,East,86,0.0,1.2,76,0.00,BKN,,0.00,WeatherDisplay:10.37,2015-05-30 04:05:00,
2015-05-30 00:10:00,77.0,68.9,30.07,East,92,0.0,0.0,76,0.00,BKN,,0.00,WeatherDisplay:10.37,2015-05-30 04:10:00,
2015-05-30 00:15:00,76.9,68.8,30.07,ESE,111,0.0,1.2,76,0.00,BKN,,0.00,WeatherDisplay:10.37,2015-05-30 04:15:00,
2015-05-30 00:20:00,76.9,68.8,30.07,ENE,72,0.0,0.0,76,0.00,BKN,,0.00,WeatherDisplay:10.37,2015-05-30 04:20:00,
2015-05-30 00:25:00,76.8,68.7,30.07,ENE,76,0.0,1.2,76,0.00,BKN,,0.00,WeatherDisplay:10.37,2015-05-30 04:25:00,
2015-05-30 00:30:00,76.8,68.7,30.07,East,94,0.0,0.0,76,0.00,BKN,,0.00,WeatherDisplay:10.37,2015-05-30 04:30:00,
2015-05-30 00:35:00,76.8,68.7,30.06,East,84,0.0,1.2,76,0.00,BKN,,0.00,WeatherDisplay:10.37,2015-05-30 04:35:00,
2015-05-30 00:40:00,76.7,68.6,30.06,ENE,64,0.0,0.0,76,0.00,BKN,,0.00,WeatherDisplay:10.37,2015-05-30 04:40:00,
2015-05-30 00:45:00,76.7,68.6,30.06,East,88,0.0,0.0,76,0.00,BKN,,0.00,WeatherDisplay:10.37,2015-05-30 04:45:00,
2015-05-30 00:50:00,76.7,68.9,30.06,ENE,78,0.6,2.3,77,0.00,BKN,,0.00,WeatherDisplay:10.37,2015-05-30 04:50:00,
2015-05-30 00:55:00,76.7,68.9,30.06,East,99,0.0,2.3,77,0.00,BKN,,0.00,WeatherDisplay:10.37,2015-05-30 04:55:00,
2015-05-30 01:00:00,76.7,68.9,30.06,East,98,0.0,0.0,77,0.00,BKN,,0.00,WeatherDisplay:10.37,2015-05-30 05:00:00,
2015-05-30 01:05:00,76.7,68.9,30.06,East,83,0.0,1.2,77,0.00,BKN,,0.00,WeatherDisplay:10.37,2015-05-30 05:05:00,
2015-05-30 01:10:00,76.7,68.9,30.06,East,92,0.0,0.0,77,0.00,BKN,,0.00,WeatherDisplay:10.37,2015-05-30 05:10:00,
2015-05-30 01:15:00,76.7,68.9,30.06,ENE,65,0.0,0.0,77,0.00,BKN,,0.00,WeatherDisplay:10.37,2015-05-30 05:15:00,
2015-05-30 01:20:00,76.6,68.8,30.06,ENE,71,0.1,1.2,77,0.00,BKN,,0.00,WeatherDisplay:10.37,2015-05-30 05:20:00,
2015-05-30 01:25:00,76.6,68.8,30.06,East,80,0.0,0.0,77,0.00,BKN,,0.00,WeatherDisplay:10.37,2015-05-30 05:25:00,
2015-05-30 01:30:00,76.6,68.8,30.06,East,80,0.0,0.0,77,0.00,BKN,,0.00,WeatherDisplay:10.37,2015-05-30 05:30:00,
2015-05-30 01:35:00,76.5,68.7,30.06,East,80,0.0,1.2,77,0.00,BKN,,0.00,WeatherDisplay:10.37,2015-05-30 05:35:00,
2015-05-30 01:40:00,76.5,68.7,30.05,East,81,0.0,0.0,77,0.00,BKN,,0.00,WeatherDisplay:10.37,2015-05-30 05:40:00,
2015-05-30 01:45:00,76.4,69.0,30.05,ENE,78,0.0,1.2,78,0.00,BKN,,0.00,WeatherDisplay:10.37,2015-05-30 05:45:00,
2015-05-30 01:50:00,76.4,69.0,30.05,ENE,67,0.0,0.0,78,0.00,BKN,,0.00,WeatherDisplay:10.37,2015-05-30 05:50:00,
2015-05-30 01:55:00,76.3,68.9,30.05,ENE,70,0.0,0.0,78,0.00,BKN,,0.00,WeatherDisplay:10.37,2015-05-30 05:55:00,
2015-05-30 02:00:00,76.2,68.8,30.05,ENE,70,0.0,0.0,78,0.00,BKN,,0.00,WeatherDisplay:10.37,2015-05-30 06:00:00,
2015-05-30 02:05:00,76.2,68.8,30.05,ENE,72,0.0,0.0,78,0.00,BKN,,0.00,WeatherDisplay:10.37,2015-05-30 06:05:00,
2015-05-30 02:10:00,76.1,68.7,30.05,ENE,72,0.0,0.0,78,0.00,BKN,,0.00,WeatherDisplay:10.37,2015-05-30 06:10:00,
2015-05-30 02:15:00,76.1,68.7,30.05,ENE,72,0.0,0.0,78,0.00,BKN,,0.00,WeatherDisplay:10.37,2015-05-30 06:15:00,
2015-05-30 02:20:00,76.0,68.6,30.04,ENE,73,0.0,0.0,78,0.00,BKN,,0.00,WeatherDisplay:10.37,2015-05-30 06:20:00,
2015-05-30 02:25:00,76.0,68.6,30.04,ENE,73,0.0,0.0,78,0.00,BKN,,0.00,WeatherDisplay:10.37,2015-05-30 06:25:00,
2015-05-30 02:30:00,76.0,68.6,30.04,ENE,65,0.0,1.2,78,0.00,BKN,,0.00,WeatherDisplay:10.37,2015-05-30 06:30:00,
2015-05-30 02:35:00,76.0,68.6,30.04,ENE,68,0.0,0.0,78,0.00,BKN,,0.00,WeatherDisplay:10.37,2015-05-30 06:35:00,
2015-05-30 02:40:00,76.1,68.7,30.04,East,94,0.0,0.0,78,0.00,BKN,,0.00,WeatherDisplay:10.37,2015-05-30 06:40:00,
2015-05-30 02:45:00,76.1,68.7,30.03,East,97,0.0,0.0,78,0.00,BKN,,0.00,WeatherDisplay:10.37,2015-05-30 06:45:00,
2015-05-30 02:50:00,76.2,68.8,30.04,East,90,0.1,1.0,78,0.00,BKN,,0.00,WeatherDisplay:10.37,2015-05-30 06:50:00,
2015-05-30 02:55:00,76.2,69.2,30.03,East,88,0.0,0.0,79,0.00,BKN,,0.00,WeatherDisplay:10.37,2015-05-30 06:55:00,
2015-05-30 03:00:00,76.2,69.2,30.04,East,90,0.0,0.0,79,0.00,BKN,,0.00,WeatherDisplay:10.37,2015-05-30 07:00:00,
2015-05-30 03:05:00,76.2,69.2,30.03,East,91,0.0,0.0,79,0.00,BKN,,0.00,WeatherDisplay:10.37,2015-05-30 07:05:00,
2015-05-30 03:10:00,76.1,68.7,30.03,East,91,0.0,0.0,78,0.00,BKN,,0.00,WeatherDisplay:10.37,2015-05-30 07:10:00,
2015-05-30 03:15:00,76.1,68.7,30.03,East,91,0.0,0.0,78,0.00,BKN,,0.00,WeatherDisplay:10.37,2015-05-30 07:15:00,
2015-05-30 03:20:00,76.1,68.7,30.03,East,88,0.0,0.0,78,0.00,BKN,,0.00,WeatherDisplay:10.37,2015-05-30 07:20:00,
2015-05-30 03:25:00,76.0,69.0,30.03,East,87,0.0,0.0,79,0.00,BKN,,0.00,WeatherDisplay:10.37,2015-05-30 07:25:00,
2015-05-30 03:30:00,76.0,69.0,30.03,East,85,0.0,0.0,79,0.00,BKN,,0.00,WeatherDisplay:10.37,2015-05-30 07:30:00,
2015-05-30 03:35:00,76.0,69.0,30.02,East,84,0.0,0.0,79,0.00,BKN,,0.00,WeatherDisplay:10.37,2015-05-30 07:35:00,
2015-05-30 03:40:00,75.9,68.9,30.02,East,84,0.0,0.0,79,0.00,BKN,,0.00,WeatherDisplay:10.37,2015-05-30 07:40:00,
2015-05-30 04:15:00,76.1,69.1,30.03,ESE,102,0.0,0.0,79,0.00,BKN,,0.00,WeatherDisplay:10.37,2015-05-30 08:15:00,